GW2922 Weather Reports


Display with metric or nautical units.
time (UTC)temp
F
wind
direction
speed
MPH
gust
MPH
rain 1hr
in
rain 24hr
in
rain mn
in
humidity
%
barometer
mb
20260506070808 49 74 0.0 1.0 0.00 0.00 0.00 91 1018.5
20260506070305 49 98 0.0 1.0 0.00 0.00 0.00 91 1018.5
20260506062242 50 50 0.0 3.0 0.00 0.00 0.00 90 1018.5
20260506061738 50 318 1.0 4.0 0.00 0.00 0.00 90 1018.5
20260506061235 50 125 0.0 2.0 0.00 0.00 0.00 90 1018.5
20260506060733 50 317 1.0 1.0 0.00 0.00 0.00 90 1018.5
20260506060230 50 95 2.0 2.0 0.00 0.00 0.00 90 1018.5
20260506051156 51 70 1.0 7.0 0.00 0.00 0.00 89 1018.2
20260506050655 51 64 1.0 1.0 0.00 0.00 0.00 88 1018.2
20260506050152 51 1 1.0 2.0 0.00 0.00 0.00 88 1018.5
20260506044643 51 54 1.0 4.0 0.00 0.00 0.00 88 1018.2
20260506044140 51 45 1.0 2.0 0.00 0.00 0.00 88 1018.2
20260506043637 51 161 1.0 2.0 0.00 0.00 0.00 87 1018.2
20260506043135 51 232 1.0 2.0 0.00 0.00 0.00 87 1018.2
20260506042634 51 107 0.0 1.0 0.00 0.00 0.00 87 1018.2
20260506042131 51 2 0.0 1.0 0.00 0.00 0.00 87 1017.9
20260506041630 51 113 0.0 1.0 0.00 0.00 0.00 87 1017.9
20260506041126 51 127 0.0 1.0 0.00 0.00 0.00 86 1017.9
20260506040624 52 108 0.0 0.0 0.00 0.00 0.00 86 1017.9
20260506040120 52 60 0.0 1.0 0.00 0.00 0.00 86 1017.5
20260506035617 52 138 0.0 2.0 0.00 0.00 0.00 85 1017.5
20260506035114 52 261 0.0 1.0 0.00 0.00 0.00 85 1017.9
20260506034611 52 96 0.0 1.0 0.00 0.00 0.00 85 1017.5
20260506034108 53 122 0.0 1.0 0.00 0.00 0.00 84 1017.5
20260506033605 53 99 0.0 1.0 0.00 0.00 0.00 84 1017.5
20260506033102 53 142 0.0 0.0 0.00 0.00 0.00 83 1017.5
20260506032600 54 156 0.0 1.0 0.00 0.00 0.00 82 1017.2
20260506032056 54 105 0.0 1.0 0.00 0.00 0.00 82 1017.2
20260506031554 54 133 0.0 1.0 0.00 0.00 0.00 82 1017.5
20260506031050 54 56 1.0 1.0 0.00 0.00 0.00 81 1017.5
20260506030549 55 110 0.0 1.0 0.00 0.00 0.00 81 1017.5
20260506030046 55 117 0.0 1.0 0.00 0.00 0.00 80 1017.2
20260506025543 55 109 0.0 1.0 0.00 0.00 0.00 80 1017.5
20260506025038 55 75 1.0 3.0 0.00 0.00 0.00 80 1017.2
20260506024536 55 326 2.0 2.0 0.00 0.00 0.00 79 1017.5
20260506024032 56 98 0.0 1.0 0.00 0.00 0.00 79 1017.2
20260506023528 56 128 0.0 1.0 0.00 0.00 0.00 79 1017.5
20260506023026 56 71 1.0 2.0 0.00 0.00 0.00 78 1017.5
20260506022523 56 149 1.0 1.0 0.00 0.00 0.00 78 1017.5
20260506022021 56 110 0.0 3.0 0.00 0.00 0.00 78 1017.5
20260506021518 56 262 1.0 2.0 0.00 0.00 0.00 78 1017.2
20260506021015 56 7 1.0 3.0 0.00 0.00 0.00 78 1017.5
20260506020513 56 338 1.0 7.0 0.00 0.00 0.00 78 1017.5
20260506020010 57 317 2.0 3.0 0.00 0.00 0.00 77 1017.2
20260506015507 58 258 2.0 3.0 0.00 0.00 0.00 76 1017.2
20260506015004 58 48 1.0 4.0 0.00 0.00 0.00 75 1017.5
20260506014502 59 29 1.0 4.0 0.00 0.00 0.00 74 1017.5
20260506013957 59 69 1.0 3.0 0.00 0.00 0.00 74 1017.5
20260506013455 59 52 2.0 4.0 0.00 0.00 0.00 74 1017.5
20260506012951 59 83 1.0 7.0 0.00 0.00 0.00 74 1017.5
20260506012448 59 301 4.0 4.0 0.00 0.00 0.00 74 1017.5
20260506011945 59 102 1.0 3.0 0.00 0.00 0.00 74 1017.5
20260506011442 59 210 3.0 3.0 0.00 0.00 0.00 73 1017.5
20260506010939 59 110 1.0 6.0 0.00 0.00 0.00 74 1017.5
20260506010438 59 128 2.0 4.0 0.00 0.00 0.00 73 1017.5
20260506005933 59 354 2.0 3.0 0.00 0.00 0.00 73 1017.2
20260506005432 59 9 2.0 6.0 0.00 0.00 0.00 72 1017.5
20260506004926 60 297 4.0 8.0 0.00 0.00 0.00 73 1017.2
20260506004425 61 121 0.0 6.0 0.00 0.00 0.00 71 1017.5
20260506003920 61 321 2.0 4.0 0.00 0.00 0.00 70 1017.5
20260506003417 61 92 0.0 4.0 0.00 0.00 0.00 71 1017.5
20260506002914 60 73 1.0 3.0 0.00 0.00 0.00 71 1017.5
20260506002410 61 84 1.0 4.0 0.00 0.00 0.00 71 1017.5
20260506001905 62 27 2.0 2.0 0.00 0.00 0.00 68 1017.5
20260506001403 62 110 0.0 3.0 0.00 0.00 0.00 70 1017.5
20260506000900 62 97 1.0 2.0 0.00 0.00 0.00 70 1017.5
20260506000357 63 98 2.0 2.0 0.00 0.00 0.00 68 1017.5
20260505235854 63 84 1.0 2.0 0.00 0.00 0.00 69 1017.5
20260505235352 64 356 5.0 6.0 0.00 0.00 0.00 68 1017.5
20260505234848 64 351 2.0 4.0 0.00 0.00 0.00 67 1017.5
20260505234346 62 123 0.0 2.0 0.00 0.00 0.00 72 1017.5
20260505233843 62 213 2.0 3.0 0.00 0.00 0.00 72 1017.5
20260505233341 63 113 1.0 6.0 0.00 0.00 0.00 71 1017.9
20260505232838 63 311 1.0 2.0 0.00 0.00 0.00 70 1017.5
20260505232336 62 34 2.0 3.0 0.00 0.00 0.00 71 1017.9
20260505231832 63 289 3.0 4.0 0.00 0.00 0.00 71 1017.9
20260505231330 61 320 3.0 4.0 0.00 0.00 0.00 72 1017.5
20260505230828 62 71 2.0 3.0 0.00 0.00 0.00 71 1017.5
20260505230325 62 44 1.0 4.0 0.00 0.00 0.00 74 1017.5
20260505225821 63 20 2.0 4.0 0.00 0.00 0.00 71 1017.9
20260505225319 61 155 0.0 2.0 0.00 0.00 0.00 73 1017.9
20260505224813 61 68 1.0 2.0 0.00 0.00 0.00 74 1017.9
20260505224312 61 86 0.0 2.0 0.00 0.00 0.00 74 1017.9
20260505223808 60 58 2.0 3.0 0.00 0.00 0.00 75 1017.9
20260505223306 60 57 1.0 4.0 0.00 0.00 0.00 75 1017.9
20260505222801 64 82 1.0 1.0 0.00 0.00 0.00 69 1017.9
20260505222257 64 126 2.0 3.0 0.00 0.00 0.00 69 1017.9
20260505221755 64 106 1.0 2.0 0.00 0.00 0.00 71 1017.9
20260505221251 61 296 1.0 2.0 0.00 0.00 0.00 73 1017.9
20260505220748 60 358 2.0 3.0 0.00 0.00 0.00 74 1017.9
20260505220245 62 94 2.0 3.0 0.00 0.00 0.00 73 1017.9
20260505215744 61 105 0.0 1.0 0.00 0.00 0.00 74 1018.2
20260505215241 61 104 1.0 1.0 0.00 0.00 0.00 73 1018.2
20260505214739 61 83 1.0 1.0 0.00 0.00 0.00 72 1018.2
20260505214236 61 140 0.0 1.0 0.00 0.00 0.00 74 1018.2
20260505213733 62 232 3.0 3.0 0.00 0.00 0.00 72 1018.2
20260505213230 62 98 0.0 2.0 0.00 0.00 0.00 73 1018.2
20260505212726 60 185 0.0 1.0 0.00 0.00 0.00 75 1018.2
20260505212224 60 61 1.0 2.0 0.00 0.00 0.00 76 1018.2
20260505211721 59 108 0.0 1.0 0.00 0.00 0.00 78 1018.2
20260505211218 58 103 1.0 3.0 0.00 0.00 0.00 78 1018.2
20260505210714 59 72 2.0 3.0 0.00 0.00 0.00 77 1018.2
20260505210211 59 53 2.0 3.0 0.00 0.00 0.00 78 1018.2
20260505205709 58 56 1.0 2.0 0.00 0.00 0.00 79 1018.2
20260505205207 57 85 2.0 2.0 0.00 0.00 0.00 81 1018.2
20260505204703 57 59 1.0 2.0 0.00 0.00 0.00 79 1018.2
20260505204201 58 2 1.0 1.0 0.00 0.00 0.00 79 1018.5
20260505203658 58 98 0.0 0.0 0.00 0.00 0.00 80 1018.2
20260505203154 57 69 1.0 2.0 0.00 0.00 0.00 81 1018.2
20260505202650 57 94 0.0 1.0 0.00 0.00 0.00 81 1018.2
20260505202147 57 86 1.0 2.0 0.00 0.00 0.00 81 1018.2
20260505201643 56 290 1.0 2.0 0.00 0.00 0.00 82 1018.2
20260505201141 57 317 1.0 3.0 0.00 0.00 0.00 81 1018.2
20260505200639 57 62 1.0 1.0 0.00 0.00 0.00 83 1017.9
20260505200136 55 82 1.0 2.0 0.00 0.00 0.00 84 1018.2
20260505195632 55 10 2.0 3.0 0.00 0.00 0.00 84 1018.2
20260505195129 55 67 1.0 3.0 0.00 0.00 0.00 84 1018.2
20260505194626 55 83 2.0 2.0 0.00 0.00 0.00 85 1018.2
20260505194122 55 63 2.0 2.0 0.00 0.00 0.00 86 1018.2
20260505193619 54 9 2.0 3.0 0.00 0.00 0.00 86 1018.2
20260505193116 54 77 1.0 2.0 0.00 0.00 0.00 86 1018.2
20260505192615 55 35 1.0 3.0 0.00 0.00 0.00 86 1018.2
20260505192112 54 14 2.0 2.0 0.00 0.00 0.00 87 1018.2
20260505191610 54 17 2.0 3.0 0.00 0.00 0.00 87 1018.2
20260505191107 54 27 2.0 3.0 0.00 0.00 0.00 87 1018.2
20260505190603 54 31 1.0 2.0 0.00 0.00 0.00 88 1018.2
20260505190058 54 43 0.0 2.0 0.00 0.00 0.00 88 1018.2
20260505185555 54 54 1.0 4.0 0.00 0.00 0.00 87 1018.2
20260505185051 54 38 1.0 2.0 0.00 0.00 0.00 88 1018.2
20260505184548 54 152 0.0 2.0 0.00 0.00 0.00 88 1018.2
20260505184045 54 67 1.0 2.0 0.00 0.00 0.00 88 1018.2
20260505183542 54 104 1.0 2.0 0.00 0.00 0.00 87 1018.2
20260505183039 54 93 1.0 1.0 0.00 0.00 0.00 87 1017.9
20260505182535 54 101 1.0 3.0 0.00 0.00 0.00 87 1018.2
20260505182032 54 97 1.0 3.0 0.00 0.00 0.00 87 1017.9
20260505181529 54 94 1.0 2.0 0.00 0.00 0.00 87 1017.9
20260505181026 54 27 1.0 2.0 0.00 0.00 0.00 87 1018.2
20260505180522 54 97 1.0 1.0 0.00 0.00 0.00 87 1017.9
20260505180020 54 85 1.0 2.0 0.00 0.00 0.00 86 1017.9
20260505175515 54 358 0.0 2.0 0.00 0.00 0.00 85 1017.9
20260505175012 55 10 1.0 2.0 0.00 0.00 0.00 84 1017.9
20260505174509 55 103 2.0 3.0 0.00 0.00 0.00 84 1017.5
20260505174005 55 156 1.0 1.0 0.00 0.00 0.00 85 1017.9
20260505173501 55 101 2.0 4.0 0.00 0.00 0.00 86 1017.9
20260505172958 55 105 4.0 6.0 0.00 0.00 0.00 86 1017.9
20260505172456 55 113 1.0 3.0 0.00 0.00 0.00 86 1017.5
20260505171951 54 194 2.0 4.0 0.00 0.00 0.00 86 1017.5
20260505171447 54 175 3.0 7.0 0.00 0.00 0.00 86 1017.9
20260505170944 54 169 3.0 6.0 0.00 0.00 0.00 87 1017.9
20260505170441 54 122 2.0 6.0 0.00 0.00 0.00 87 1017.5
20260505165936 54 166 5.0 6.0 0.00 0.00 0.00 86 1017.5
20260505165432 54 154 1.0 2.0 0.00 0.00 0.00 87 1017.9
20260505164928 54 159 4.0 6.0 0.00 0.00 0.00 87 1017.9
20260505164425 54 167 1.0 2.0 0.00 0.00 0.00 88 1017.5
20260505163923 54 119 2.0 4.0 0.00 0.00 0.00 88 1017.5
20260505163422 54 160 2.0 4.0 0.00 0.00 0.00 88 1017.5
20260505162920 54 117 1.0 6.0 0.00 0.00 0.00 88 1017.5
20260505162415 54 126 3.0 3.0 0.00 0.00 0.00 88 1017.5
20260505161912 54 122 1.0 2.0 0.00 0.00 0.00 88 1017.5
20260505161409 54 152 2.0 4.0 0.00 0.00 0.00 89 1017.5
20260505160907 54 162 2.0 3.0 0.00 0.00 0.00 89 1017.5
20260505160405 54 151 2.0 4.0 0.00 0.00 0.00 89 1017.5
20260505153343 53 119 0.0 1.0 0.00 0.00 0.00 91 1017.2
20260505152840 53 110 0.0 1.0 0.00 0.00 0.00 91 1017.5
20260505152337 53 108 0.0 1.0 0.00 0.00 0.00 91 1017.2
20260505151832 53 106 0.0 0.0 0.00 0.00 0.00 91 1017.2
20260505151328 53 108 0.0 1.0 0.00 0.00 0.00 91 1017.2
20260505150825 53 95 0.0 1.0 0.00 0.00 0.00 91 1017.2
20260505150322 53 108 0.0 0.0 0.00 0.00 0.00 92 1017.2
20260505140247 52 115 0.0 0.0 0.00 0.00 0.00 92 1016.9
20260505130211 51 112 0.0 0.0 0.00 0.00 0.00 93 1015.8
20260505124701 51 97 0.0 0.0 0.00 0.00 0.00 93 1015.8
20260505124157 51 112 0.0 0.0 0.00 0.00 0.00 93 1015.8
20260505123653 51 112 0.0 0.0 0.00 0.00 0.00 93 1015.8
20260505123150 51 105 0.0 1.0 0.00 0.00 0.00 93 1015.8
20260505122647 51 89 0.0 0.0 0.00 0.00 0.00 93 1015.8
20260505122144 51 114 0.0 0.0 0.00 0.00 0.00 93 1015.8
20260505121641 51 81 1.0 1.0 0.00 0.00 0.00 94 1015.8
20260505121137 50 102 0.0 0.0 0.00 0.00 0.00 94 1015.5
20260505120633 50 152 1.0 2.0 0.00 0.00 0.00 94 1015.8
20260505120129 50 106 0.0 0.0 0.00 0.00 0.00 94 1015.8
20260505115624 50 112 0.0 0.0 0.00 0.00 0.00 94 1015.8
20260505115122 50 127 0.0 0.0 0.00 0.00 0.00 94 1015.5
20260505114618 50 115 0.0 0.0 0.00 0.00 0.00 94 1015.5
20260505114115 50 120 0.0 2.0 0.00 0.00 0.00 94 1015.5
20260505113611 50 175 1.0 2.0 0.00 0.00 0.00 94 1015.5
20260505113108 50 119 0.0 2.0 0.00 0.00 0.00 94 1015.5
20260505112604 50 134 3.0 4.0 0.00 0.00 0.00 94 1015.5
20260505112103 50 130 0.0 4.0 0.00 0.00 0.00 94 1015.2
20260505111601 50 142 2.0 3.0 0.00 0.00 0.00 94 1015.2
20260505111057 50 348 0.0 2.0 0.00 0.00 0.00 94 1015.5
20260505110554 50 348 0.0 0.0 0.00 0.00 0.00 94 1015.2
20260505102027 48 348 0.0 0.0 0.00 0.00 0.00 93 1015.2
20260505101525 48 348 0.0 0.0 0.00 0.00 0.00 93 1015.2
20260505101021 48 348 0.0 0.0 0.00 0.00 0.00 93 1015.2
20260505100518 48 348 0.0 0.0 0.00 0.00 0.00 93 1014.8
20260505100015 48 348 0.0 0.0 0.00 0.00 0.00 93 1015.2
20260505095511 49 348 0.0 0.0 0.00 0.00 0.00 92 1015.2
20260505095008 49 348 0.0 0.0 0.00 0.00 0.00 92 1015.2
20260505094504 49 348 0.0 0.0 0.00 0.00 0.00 92 1014.8
20260505094000 49 348 0.0 1.0 0.00 0.00 0.00 92 1014.8
20260505093457 49 348 0.0 1.0 0.00 0.00 0.00 92 1014.8
20260505092954 49 348 0.0 0.0 0.00 0.00 0.00 92 1014.8
20260505092452 50 348 0.0 0.0 0.00 0.00 0.00 92 1014.8
20260505091949 50 348 0.0 1.0 0.00 0.00 0.00 92 1014.8
20260505091447 50 347 0.0 1.0 0.00 0.00 0.00 92 1014.8
20260505090944 50 347 1.0 1.0 0.00 0.00 0.00 92 1014.8
20260505090443 50 347 0.0 1.0 0.00 0.00 0.00 92 1014.8
20260505085939 50 347 1.0 1.0 0.00 0.00 0.00 92 1014.8
20260505085437 50 347 0.0 1.0 0.00 0.00 0.00 91 1014.5
20260505084935 50 347 0.0 0.0 0.00 0.00 0.00 91 1014.8
20260505084434 50 347 0.0 0.0 0.00 0.00 0.00 91 1014.5
20260505083931 50 347 0.0 1.0 0.00 0.00 0.00 91 1014.5
20260505083428 50 347 0.0 1.0 0.00 0.00 0.00 91 1014.5
20260505082924 50 347 1.0 2.0 0.00 0.00 0.00 91 1014.5
20260505082420 50 347 1.0 1.0 0.00 0.00 0.00 91 1014.5
20260505081917 50 348 1.0 2.0 0.00 0.00 0.00 91 1014.5
20260505081414 50 348 1.0 1.0 0.00 0.00 0.00 91 1014.5
20260505080911 50 348 0.0 0.0 0.00 0.00 0.00 91 1014.5
20260505080407 50 348 1.0 1.0 0.00 0.00 0.00 91 1014.5
20260505075902 50 347 0.0 2.0 0.00 0.00 0.00 91 1014.5
20260505075359 50 348 0.0 2.0 0.00 0.00 0.00 90 1014.5
20260505074857 50 346 1.0 1.0 0.00 0.00 0.00 90 1014.5
20260505074354 50 346 0.0 1.0 0.00 0.00 0.00 90 1014.5
20260505073851 50 346 0.0 1.0 0.00 0.00 0.00 90 1014.5
20260505073349 50 346 0.0 0.0 0.00 0.00 0.00 90 1014.1
20260505072846 50 346 0.0 1.0 0.00 0.00 0.00 89 1014.1
20260505072342 50 346 0.0 0.0 0.00 0.00 0.00 89 1014.1
20260505071838 50 346 0.0 0.0 0.00 0.00 0.00 89 1014.1
20260505071334 51 346 0.0 0.0 0.00 0.00 0.00 89 1014.1